Regional Weather Roundup
Issued by NWS Dallas/Fort Worth, TX

Home | Current Version | Previous Version | Text Only | Print | Product List | Glossary On
Versions: 1 2 3 4 5 6 7 8 9 10 11 12 13 14 15 16 17 18 19 20 21 22 23 24 25 26 27 28 29 30 31 32 33 34 35 36 37 38 39 40 41 42 43 44 45 46 47 48 49 50
000
ASUS44 KFWD 192210
RWRFWD
NORTH TEXAS HOURLY WEATHER ROUNDUP
NATIONAL WEATHER SERVICE FORT WORTH TX
400 PM CST MON FEB 19 2018

NOTE: "FAIR" INDICATES FEW OR NO CLOUDS BELOW 12,000 FEET WITH NO
SIGNIFICANT WEATHER AND/OR OBSTRUCTIONS TO VISIBILITY.

TXZ118-119-192300-
DALLAS/FORT WORTH METROPLEX

CITY           SKY/WX    TMP DP  RH WIND       PRES   REMARKS
DFW AIRPORT    CLOUDY    79  61  53 S16G25    29.76F
DALLAS LOVE    CLOUDY    77  62  59 S15       29.78F
FTW MEACHAM    CLOUDY    77  62  59 S21G28    29.76S
DAL-EXECUTIVE  CLOUDY    78  62  57 S20G29    29.78F
FTW-ALLIANCE   CLOUDY    76  61  59 S18G26    29.76S
FTW-NAS-JRB    CLOUDY    77  59  53 S17       29.77S
FTW-SPINKS     CLOUDY    79  61  53 S16G28    29.79F
ARLINGTON      PTSUNNY   77  62  59 S17G30    29.77S
GRAND PRAIRIE  MOSUNNY   77  59  53 S15G22    29.79F
ADDISON        CLOUDY    75  61  60 S12G23    29.79F
MESQUITE       CLOUDY    75  61  60 S20G28    29.81F
LANCASTER      PTSUNNY   76  61  60 S20G26    29.81S
$$

TXZ091>094-102>105-117-120-121-131>134-192300-
NORTH CENTRAL TEXAS

CITY           SKY/WX    TMP DP  RH WIND       PRES   REMARKS
SHRMAN/DENISON CLOUDY    72  62  70 S16       29.80S
GAINESVILLE    CLOUDY    73  60  63 S17       29.78S
BOWIE          CLOUDY    74  60  60 S13G18    29.74F
BRIDGEPORT     CLOUDY    75  59  57 S13G22    29.77S
DECATUR        PTSUNNY   73  60  62 S12G23    29.75S
DENTON         CLOUDY    75  61  61 S23       29.76F
MCKINNEY       CLOUDY    73  64  73 S14       29.79F
BONHAM         CLOUDY    71  62  73 S14       29.81F
GREENVILLE     CLOUDY    77  61  57 S12       29.82F
ROCKWALL       CLOUDY    76  62  61 S15G25    29.80F
TERRELL        FAIR      77  60  55 S18G26    29.81F
WAXAHACHIE     CLOUDY    76  63  62 S26G36    29.80S
CLEBURNE       CLOUDY    75  63  64 S17       29.79F
GRANBURY       CLOUDY    77  60  54 S13G20    29.78S
$$

TXZ083>090-098>101-113>116-127>130-139>142-154-155-192300-
WESTERN NORTH TEXAS

CITY           SKY/WX    TMP DP  RH WIND       PRES   REMARKS
WICHITA FALLS  FAIR      75  59  57 S17       29.69F
WF-KICKAPOO    PTSUNNY   75  61  62 S14G21    29.72F
VERNON         FAIR      78  52  39 S20       29.67S
ABILENE        FAIR      75  56  51 S18       29.73F
ABILENE-DYESS  PTSUNNY   76  57  51 S21G30    29.72F
GRAHAM           N/A     78  59  52 S15G22    29.70F
BRECKENRIDGE   PTSUNNY   80  55  42 S15G23    29.72F
CISCO          FAIR      77  57  50 S21       29.75S
EASTLAND       PTSUNNY   78  58  51 S18G25    29.74S
RANGER         FAIR      78  59  52 S14G25    29.75F
MINERAL WELLS  CLOUDY    77  58  51 S18G30    29.73F
STEPHENVILLE   CLOUDY    76  58  53 S18G26    29.80S
COMANCHE       FAIR      79  60  52 S23G32    29.77F
BROWNWOOD      PTSUNNY   77  59  53 S18G26    29.76
COLEMAN        FAIR      78  58  51 S18G25    29.76S
$$

TXZ143>147-156>162-174-175-192300-
CENTRAL TEXAS

CITY           SKY/WX    TMP DP  RH WIND       PRES   REMARKS
WACO           PTSUNNY   77  62  59 S25G37    29.79F
WACO-TSTC      PTSUNNY   79  63  57 S23G32    29.81R
WACO-MCGREGOR  PTSUNNY   77  63  61 S25G31    29.80S
HILLSBORO      CLOUDY    78  64  61 S23G32    29.79S
CORSICANA      PTSUNNY   78  63  59 S24G35    29.83F
MEXIA          CLOUDY    77  63  61 S16G30    29.83R
HEARNE         CLOUDY    77  65  66 SE21G33   29.87R
CAMERON        PTSUNNY   77  65  66 S23G31    29.84S
TEMPLE         FAIR      77  65  66 S28       29.80S
KILLEEN        LGT RAIN  72  64  77 S15       29.78F
KILLEEN-SKYLRK LGT RAIN  72  66  81 S9        29.80F
FORT HOOD      PTSUNNY   70  64  83 S14G25    29.76F
GATESVILLE     FAIR      79  61  53 S21G31    29.80F
HAMILTON       CLOUDY    77  59  53 S25       29.80S
LAMPASAS       PTSUNNY   78  60  55 S17G28    29.79F
$$

TXZ095>097-106>112-122>126-135>138-148>153-164>167-192300-
EAST TEXAS

CITY           SKY/WX    TMP DP  RH WIND       PRES   REMARKS
PARIS            N/A     73  62  68 S13       29.84F
SULPHUR SPRNGS CLOUDY    77  59  54 S16G23    29.86S
MOUNT PLEASANT FAIR      77  61  58 S14G22    29.88F
GILMER         CLOUDY    76  60  57 SE14G21   29.88S
MINEOLA        PTSUNNY   77  61  57 S16G25    29.84F
TYLER          CLOUDY    77  60  55 S17G26    29.87R
LONGVIEW       PTSUNNY   78  62  57 S21G29    29.89F
MARSHALL       CLOUDY    76  56  49 S10       29.94S
ATHENS         CLOUDY    73  59  60 S15G25    29.84S
PALESTINE      PTSUNNY   79  62  56 SE14G22   29.87F
JACKSONVILLE   PTSUNNY   77  62  59 S17G25    29.91S
CENTER         FAIR      79  51  37 S16G23    29.95F
NACOGDOCHES    PTSUNNY   78  59  51 S21G28    29.92F
LUFKIN         FAIR      77  60  55 S15       29.93F
$$

SUPPLEMENTAL OBSERVATIONS (NWS FORT WORTH AREA)

CITY           SKY/WX    TMP DP  RH WIND       PRES   REMARKS
CADDO GRASSLND   N/A     72  61  68 S12         N/A
PAT MAYSE LAKE   N/A     66  64  94 SE8         N/A
GREENVILLE       N/A     75  61  60 S12         N/A
CEDAR HILL       N/A    N/A N/A N/A S15G24      N/A
LBJ GRASSLAND    N/A     73  59  60 S15G30      N/A
POSSUM KINGDOM   N/A     79  59  50 S14G26      N/A
GRANBURY         N/A     75  57  53 S16G26      N/A
TEMPLE           N/A     79  64  61 S15G26      N/A
$$

SUPPLEMENTAL OBSERVATIONS (NWS NORMAN AREA)

CITY           SKY/WX    TMP DP  RH WIND       PRES   REMARKS
GOODLETT         N/A     77  49  37 S22G29    29.63F
ODELL            N/A     77  59  53 S21       29.67S
CROWELL          N/A     76  57  51 S24       29.67S
KNOX CITY        N/A     77  53  41 S21G28    29.69R
SEYMOUR          N/A     78  57  48 S15       29.70R
$$

SUPPLEMENTAL OBSERVATIONS (NWS SAN ANGELO AREA)

CITY           SKY/WX    TMP DP  RH WIND       PRES   REMARKS
WEINERT          N/A     76  57  51 S21       29.69F
HASKELL          N/A     75  54  47 S18G28    29.69F
THROCKMORTON     N/A     77  59  54 S17       29.72F
STAMFORD         N/A     76  57  52 S20       29.71F
CLYDE            N/A     76  57  50 S15       29.75S
HAMBY            N/A     75  55  50 SW21G26     N/A
IVIE RESERVOIR   N/A     79  57  47 S18G28      N/A
COLORADO BEND    N/A     75  59  57 S15G26      N/A
$$

SUPPLEMENTAL OBSERVATIONS (NWS SHREVEPORT AREA)

CITY           SKY/WX    TMP DP  RH WIND       PRES   REMARKS
CLARKSVILLE      N/A     77  59  53 S20G29      N/A
TEXARKANA        N/A     79  57  47 SE10G23     N/A
LINDEN           N/A     77  57  50 S8G16       N/A
GILMER           N/A    N/A N/A N/A S14G26      N/A
HENDERSON        N/A     79  59  50 S14G24      N/A
N SABINE NF      N/A     81  46  30 MISG        N/A
S SABINE NF      N/A     81  52  36 SW8         N/A
$$

SUPPLEMENTAL OBSERVATIONS ARE A COLLECTION OF AUTOMATED INSTRUMENTS
THAT ARE MAINTAINED BY A VARIETY OF FEDERAL AND STATE AGENCIES.
CERTAIN ELEMENTS...SUCH AS HUMIDITY VALUES AND SUSTAINED WIND
SPEEDS...MAY BE APPROXIMATED.





USA.gov is the U.S. government's official web portal to all federal, state and local government web resources and services.